LOT3251 LHBP-EPWR

Flight info

Callsign LOT3251
Flight time 0h 55m
Altitude 24000
Route LITKU Y301 KALIF/N0379F300 DCT KREMI DCT BILNA DCT SOPAV DCT REGLI L617 EPOPA
Aircraft E170/M-SDE3GILORVW/S

Departure

Time 2026-05-07 18:21
Airport Budapest Liszt Ferenc International Airport (LHBP)

Arrival

Time 2026-05-07 19:17
Airport Copernicus Wrocław Airport (EPWR)
Time Latitude Longitude Altitude Speed Heading
2026-05-07 17:51 47.43552 19.25811 471 ft 0 kts 312°
2026-05-07 18:11 47.43552 19.25812 471 ft 0 kts 312°
2026-05-07 18:14 47.43547 19.25819 470 ft 0 kts 313°
2026-05-07 18:15 47.43539 19.25834 470 ft 2 kts 292°
2026-05-07 18:15 47.43536 19.25856 471 ft 2 kts 274°
2026-05-07 18:15 47.43537 19.25877 471 ft 2 kts 255°
2026-05-07 18:15 47.43543 19.25898 472 ft 2 kts 234°
2026-05-07 18:16 47.43548 19.25907 472 ft 1 kts 223°
2026-05-07 18:16 47.43552 19.25912 472 ft 0 kts 222°
2026-05-07 18:18 47.43552 19.25911 472 ft 1 kts 222°
2026-05-07 18:18 47.43540 19.25896 471 ft 4 kts 221°
2026-05-07 18:18 47.43505 19.25844 470 ft 9 kts 229°
2026-05-07 18:18 47.43518 19.25748 469 ft 12 kts 308°
2026-05-07 18:19 47.43523 19.25627 467 ft 14 kts 228°
2026-05-07 18:19 47.43442 19.25517 465 ft 17 kts 224°
2026-05-07 18:19 47.43347 19.25391 462 ft 20 kts 224°
2026-05-07 18:19 47.43249 19.25260 457 ft 21 kts 219°
2026-05-07 18:20 47.43131 19.25100 451 ft 24 kts 225°
2026-05-07 18:20 47.43143 19.24866 444 ft 33 kts 314°
2026-05-07 18:20 47.43482 19.24318 431 ft 105 kts 311°
2026-05-07 18:20 47.44096 19.23332 466 ft 150 kts 311°
2026-05-07 18:21 47.44862 19.22073 549 ft 186 kts 311°
2026-05-07 18:21 47.45797 19.20514 802 ft 214 kts 310°
2026-05-07 18:21 47.46816 19.18871 1202 ft 217 kts 312°
2026-05-07 18:21 47.47832 19.17285 1319 ft 211 kts 316°
2026-05-07 18:22 47.48954 19.15895 1246 ft 205 kts 319°
2026-05-07 18:22 47.49660 19.15036 1159 ft 198 kts 319°
2026-05-07 18:22 47.51044 19.13347 957 ft 186 kts 319°
2026-05-07 18:22 47.51996 19.12184 1092 ft 183 kts 319°
2026-05-07 18:23 47.53075 19.10862 1378 ft 206 kts 319°
2026-05-07 18:23 47.54177 19.09513 1553 ft 203 kts 319°
2026-05-07 18:23 47.55246 19.08203 1718 ft 200 kts 319°
2026-05-07 18:23 47.56314 19.06893 1882 ft 197 kts 318°
2026-05-07 18:24 47.57371 19.05595 2041 ft 194 kts 318°
2026-05-07 18:24 47.58400 19.04332 2194 ft 191 kts 318°
2026-05-07 18:24 47.59422 19.03076 2338 ft 189 kts 318°
2026-05-07 18:24 47.60422 19.01846 2486 ft 186 kts 318°
2026-05-07 18:25 47.61424 19.00614 2617 ft 184 kts 318°
2026-05-07 18:25 47.62393 18.99421 2734 ft 182 kts 318°
2026-05-07 18:25 47.63361 18.98228 2846 ft 180 kts 318°
2026-05-07 18:25 47.64331 18.97059 2977 ft 178 kts 327°
2026-05-07 18:26 47.65530 18.96727 3150 ft 192 kts 13°
2026-05-07 18:26 47.66740 18.97821 3655 ft 215 kts 40°
2026-05-07 18:26 47.67907 18.99375 4122 ft 241 kts 41°
2026-05-07 18:26 47.69180 19.01103 4586 ft 254 kts 41°
2026-05-07 18:27 47.70496 19.02907 5027 ft 257 kts 41°
2026-05-07 18:27 47.71801 19.04706 5454 ft 259 kts 41°
2026-05-07 18:27 47.73110 19.06515 5887 ft 259 kts 42°
2026-05-07 18:27 47.74440 19.08356 6323 ft 261 kts 42°
2026-05-07 18:28 47.75776 19.10208 6763 ft 264 kts 42°
2026-05-07 18:28 47.77112 19.12061 7206 ft 266 kts 42°
2026-05-07 18:28 47.78454 19.13925 7650 ft 268 kts 42°
2026-05-07 18:28 47.79818 19.15820 8103 ft 271 kts 42°
2026-05-07 18:29 47.81197 19.17739 8558 ft 272 kts 43°
2026-05-07 18:29 47.82584 19.19668 9010 ft 276 kts 43°
2026-05-07 18:29 47.83976 19.21608 9480 ft 276 kts 43°
2026-05-07 18:29 47.85386 19.23573 9949 ft 279 kts 43°
2026-05-07 18:30 47.86811 19.25562 10415 ft 282 kts 43°
2026-05-07 18:30 47.88243 19.27562 10884 ft 284 kts 43°
2026-05-07 18:30 47.89677 19.29566 11358 ft 287 kts 43°
2026-05-07 18:30 47.91135 19.31605 11850 ft 290 kts 43°
2026-05-07 18:31 47.92604 19.33662 12338 ft 292 kts 43°
2026-05-07 18:31 47.94092 19.35745 12826 ft 295 kts 43°
2026-05-07 18:31 47.95594 19.37850 13321 ft 297 kts 43°
2026-05-07 18:31 47.97104 19.39969 13816 ft 301 kts 43°
2026-05-07 18:32 47.98632 19.42115 14320 ft 304 kts 43°
2026-05-07 18:32 48.00182 19.44293 14832 ft 308 kts 43°
2026-05-07 18:32 48.01745 19.46493 15368 ft 312 kts 43°
2026-05-07 18:32 48.03316 19.48706 15894 ft 316 kts 43°
2026-05-07 18:33 48.04913 19.50956 16420 ft 319 kts 44°
2026-05-07 18:33 48.06531 19.53237 16957 ft 322 kts 44°
2026-05-07 18:33 48.08309 19.55272 17502 ft 326 kts 21°
2026-05-07 18:33 48.10494 19.56181 18122 ft 328 kts
2026-05-07 18:34 48.12751 19.56852 18691 ft 332 kts
2026-05-07 18:34 48.15038 19.57521 19254 ft 336 kts
2026-05-07 18:34 48.17329 19.58188 19830 ft 340 kts
2026-05-07 18:34 48.19635 19.58858 20405 ft 343 kts
2026-05-07 18:35 48.22007 19.59547 20994 ft 346 kts
2026-05-07 18:35 48.24371 19.59709 21591 ft 343 kts 353°
2026-05-07 18:35 48.26735 19.59494 22184 ft 344 kts 352°
2026-05-07 18:35 48.29134 19.59268 22783 ft 346 kts 352°
2026-05-07 18:36 48.31527 19.59039 23377 ft 347 kts 352°
2026-05-07 18:36 48.33937 19.58807 23909 ft 350 kts 352°
2026-05-07 18:36 48.36428 19.58565 23972 ft 366 kts 352°
2026-05-07 18:36 48.39014 19.58315 24002 ft 384 kts 352°
2026-05-07 18:37 48.41735 19.58051 24003 ft 403 kts 353°
2026-05-07 18:37 48.44581 19.57776 24000 ft 420 kts 353°
2026-05-07 18:37 48.47551 19.57366 23984 ft 433 kts 343°
2026-05-07 18:37 48.50294 19.55655 24007 ft 430 kts 321°
2026-05-07 18:38 48.52452 19.52642 23995 ft 418 kts 300°
2026-05-07 18:38 48.53980 19.48951 24001 ft 415 kts 295°
2026-05-07 18:38 48.55481 19.45235 23981 ft 415 kts 295°
2026-05-07 18:38 48.56983 19.41536 23980 ft 414 kts 295°
2026-05-07 18:39 48.58476 19.37862 23982 ft 416 kts 295°
2026-05-07 18:39 48.59991 19.34130 23980 ft 415 kts 295°
2026-05-07 18:39 48.61501 19.30405 23981 ft 416 kts 295°
2026-05-07 18:39 48.63012 19.26674 23980 ft 417 kts 295°
2026-05-07 18:40 48.64501 19.22994 23977 ft 417 kts 295°
2026-05-07 18:40 48.66017 19.19239 23983 ft 417 kts 295°
2026-05-07 18:40 48.67525 19.15498 23983 ft 417 kts 295°
2026-05-07 18:40 48.69025 19.11776 23981 ft 417 kts 295°
2026-05-07 18:41 48.70530 19.08033 23984 ft 418 kts 295°
2026-05-07 18:41 48.72039 19.04276 23983 ft 417 kts 295°
2026-05-07 18:41 48.73548 19.00511 23983 ft 417 kts 295°
2026-05-07 18:41 48.75055 18.96748 23986 ft 419 kts 295°
2026-05-07 18:42 48.76543 18.93025 23989 ft 418 kts 295°
2026-05-07 18:42 48.78252 18.89377 23960 ft 429 kts 310°
2026-05-07 18:42 48.80750 18.86738 24014 ft 442 kts 329°
2026-05-07 18:42 48.83510 18.84772 23992 ft 444 kts 330°
2026-05-07 18:43 48.86308 18.82792 23974 ft 443 kts 330°
2026-05-07 18:43 48.89097 18.80813 23988 ft 445 kts 330°
2026-05-07 18:43 48.91915 18.78812 23988 ft 443 kts 330°
2026-05-07 18:43 48.94725 18.76814 23986 ft 444 kts 330°
2026-05-07 18:44 48.97484 18.74849 23982 ft 444 kts 331°
2026-05-07 18:44 49.00282 18.72854 23981 ft 445 kts 330°
2026-05-07 18:44 49.03106 18.70839 23987 ft 444 kts 331°
2026-05-07 18:44 49.05890 18.68850 23986 ft 445 kts 330°
2026-05-07 18:45 49.08682 18.66852 23991 ft 444 kts 331°
2026-05-07 18:45 49.11496 18.64835 23978 ft 446 kts 331°
2026-05-07 18:45 49.14297 18.62826 23973 ft 444 kts 331°
2026-05-07 18:45 49.17104 18.60810 23969 ft 445 kts 331°
2026-05-07 18:46 49.19903 18.58797 23979 ft 445 kts 331°
2026-05-07 18:46 49.22670 18.56804 23978 ft 445 kts 331°
2026-05-07 18:46 49.25494 18.54768 23969 ft 444 kts 331°
2026-05-07 18:46 49.28251 18.52778 23968 ft 444 kts 331°
2026-05-07 18:47 49.31076 18.50736 23971 ft 445 kts 331°
2026-05-07 18:47 49.33875 18.48710 23972 ft 445 kts 332°
2026-05-07 18:47 49.36633 18.46712 23968 ft 445 kts 332°
2026-05-07 18:47 49.39454 18.44665 23966 ft 444 kts 332°
2026-05-07 18:48 49.42255 18.42631 23970 ft 445 kts 332°
2026-05-07 18:48 49.45048 18.40599 23966 ft 446 kts 332°
2026-05-07 18:48 49.47848 18.38560 23962 ft 445 kts 332°
2026-05-07 18:48 49.50636 18.36527 23964 ft 444 kts 332°
2026-05-07 18:49 49.53463 18.34463 23965 ft 446 kts 331°
2026-05-07 18:49 49.56249 18.32427 23967 ft 445 kts 330°
2026-05-07 18:49 49.59051 18.30375 23964 ft 444 kts 330°
2026-05-07 18:49 49.61828 18.28339 23961 ft 445 kts 331°
2026-05-07 18:50 49.64622 18.26290 23954 ft 440 kts 331°
2026-05-07 18:50 49.67353 18.24284 23935 ft 428 kts 331°
2026-05-07 18:50 49.69951 18.22376 23057 ft 407 kts 330°
2026-05-07 18:50 49.72439 18.20542 21837 ft 397 kts 330°
2026-05-07 18:51 49.74886 18.18737 20664 ft 385 kts 330°
2026-05-07 18:51 49.77270 18.16977 19506 ft 374 kts 330°
2026-05-07 18:51 49.79551 18.15291 18399 ft 362 kts 330°
2026-05-07 18:51 49.81779 18.13641 17413 ft 358 kts 330°
2026-05-07 18:52 49.84008 18.11989 16452 ft 361 kts 330°
2026-05-07 18:52 49.86264 18.10317 16023 ft 360 kts 331°
2026-05-07 18:52 49.88526 18.08639 15974 ft 360 kts 331°
2026-05-07 18:52 49.90797 18.06952 15964 ft 360 kts 331°
2026-05-07 18:53 49.93039 18.05311 15949 ft 361 kts 334°
2026-05-07 18:53 49.95393 18.03929 15953 ft 361 kts 336°
2026-05-07 18:53 49.97759 18.02578 15961 ft 361 kts 336°
2026-05-07 18:53 50.00101 18.01239 15959 ft 362 kts 336°
2026-05-07 18:54 50.02488 17.99872 15953 ft 362 kts 336°
2026-05-07 18:54 50.04848 17.98514 15954 ft 362 kts 336°
2026-05-07 18:54 50.07183 17.97169 15954 ft 361 kts 336°
2026-05-07 18:54 50.09554 17.95802 15949 ft 361 kts 336°
2026-05-07 18:55 50.11918 17.94437 15949 ft 362 kts 336°
2026-05-07 18:55 50.14265 17.93080 15949 ft 362 kts 336°
2026-05-07 18:55 50.16628 17.91713 15954 ft 362 kts 336°
2026-05-07 18:55 50.18972 17.90357 15894 ft 352 kts 336°
2026-05-07 18:56 50.21230 17.89048 15314 ft 344 kts 336°
2026-05-07 18:56 50.23461 17.87751 14454 ft 346 kts 336°
2026-05-07 18:56 50.25695 17.86453 13574 ft 347 kts 336°
2026-05-07 18:56 50.27818 17.84797 12641 ft 337 kts 327°
2026-05-07 18:57 50.29816 17.83056 11558 ft 326 kts 329°
2026-05-07 18:57 50.31763 17.81410 10595 ft 318 kts 329°
2026-05-07 18:57 50.33706 17.79786 10047 ft 323 kts 329°
2026-05-07 18:57 50.35700 17.78129 9982 ft 324 kts 330°
2026-05-07 18:58 50.37687 17.76479 9959 ft 324 kts 330°
2026-05-07 18:58 50.39663 17.74840 9957 ft 323 kts 330°
2026-05-07 18:58 50.41644 17.73194 9957 ft 323 kts 330°
2026-05-07 18:58 50.43644 17.71533 9955 ft 324 kts 330°
2026-05-07 18:59 50.45636 17.69875 9958 ft 324 kts 330°
2026-05-07 18:59 50.47611 17.68231 9955 ft 323 kts 330°
2026-05-07 18:59 50.49586 17.66585 9955 ft 323 kts 330°
2026-05-07 18:59 50.51557 17.64941 9944 ft 314 kts 330°
2026-05-07 19:00 50.53411 17.63396 9910 ft 289 kts 329°
2026-05-07 19:00 50.55175 17.61920 9984 ft 289 kts 329°
2026-05-07 19:00 50.56936 17.60446 9976 ft 290 kts 329°
2026-05-07 19:00 50.58717 17.58954 9963 ft 290 kts 329°
2026-05-07 19:01 50.60494 17.57465 9968 ft 291 kts 329°
2026-05-07 19:01 50.62282 17.55966 9966 ft 291 kts 329°
2026-05-07 19:01 50.64079 17.54457 9963 ft 290 kts 329°
2026-05-07 19:01 50.65854 17.52966 9965 ft 291 kts 329°
2026-05-07 19:02 50.67629 17.51473 9962 ft 290 kts 329°
2026-05-07 19:02 50.69430 17.49958 9956 ft 291 kts 329°
2026-05-07 19:02 50.71209 17.48460 9970 ft 291 kts 329°
2026-05-07 19:02 50.72956 17.46989 9659 ft 277 kts 329°
2026-05-07 19:03 50.74623 17.45583 8854 ft 272 kts 329°
2026-05-07 19:03 50.76266 17.44194 8006 ft 268 kts 330°
2026-05-07 19:03 50.77896 17.42816 7183 ft 265 kts 330°
2026-05-07 19:03 50.79546 17.41419 6987 ft 276 kts 330°
2026-05-07 19:04 50.81303 17.40241 6948 ft 280 kts 351°
2026-05-07 19:04 50.83226 17.40623 6977 ft 285 kts 25°
2026-05-07 19:04 50.84730 17.42619 6986 ft 288 kts 58°
2026-05-07 19:04 50.85320 17.45606 6977 ft 289 kts 92°
2026-05-07 19:05 50.84821 17.48647 6981 ft 285 kts 116°
2026-05-07 19:05 50.84425 17.51671 6962 ft 288 kts 84°
2026-05-07 19:05 50.85125 17.54616 6977 ft 287 kts 50°
2026-05-07 19:05 50.86697 17.56484 6982 ft 285 kts 17°
2026-05-07 19:06 50.88606 17.57123 6958 ft 283 kts
2026-05-07 19:06 50.92499 17.58017 6932 ft 282 kts
2026-05-07 19:06 50.94463 17.58465 6941 ft 282 kts
2026-05-07 19:07 50.96407 17.58909 6938 ft 282 kts
2026-05-07 19:07 50.98357 17.59267 6930 ft 281 kts 354°
2026-05-07 19:07 51.00147 17.58324 6967 ft 274 kts 320°
2026-05-07 19:07 51.01344 17.56032 6981 ft 269 kts 298°
2026-05-07 19:08 51.02225 17.53442 6946 ft 269 kts 296°
2026-05-07 19:08 51.03098 17.50814 6940 ft 269 kts 296°
2026-05-07 19:08 51.03975 17.48169 6938 ft 269 kts 296°
2026-05-07 19:08 51.04840 17.45561 6941 ft 269 kts 296°
2026-05-07 19:09 51.05716 17.42918 6944 ft 269 kts 296°
2026-05-07 19:09 51.06580 17.40310 6934 ft 265 kts 296°
2026-05-07 19:09 51.07405 17.37825 6566 ft 251 kts 296°
2026-05-07 19:09 51.08155 17.35310 5934 ft 254 kts 283°
2026-05-07 19:10 51.08063 17.32541 5204 ft 260 kts 248°
2026-05-07 19:10 51.06973 17.30355 4382 ft 258 kts 213°
2026-05-07 19:10 51.05396 17.29071 3681 ft 251 kts 206°
2026-05-07 19:10 51.03825 17.27922 3221 ft 250 kts 206°
2026-05-07 19:11 51.02243 17.26718 2972 ft 249 kts 215°
2026-05-07 19:11 51.01194 17.24670 2968 ft 242 kts 254°
2026-05-07 19:11 51.00904 17.22059 2967 ft 239 kts 265°
2026-05-07 19:11 51.00802 17.19444 2941 ft 237 kts 281°
2026-05-07 19:12 51.01392 17.17045 2942 ft 233 kts 299°
2026-05-07 19:12 51.02123 17.14816 2881 ft 217 kts 298°
2026-05-07 19:12 51.02773 17.12768 2875 ft 197 kts 298°
2026-05-07 19:12 51.03353 17.10918 2888 ft 179 kts 298°
2026-05-07 19:13 51.03902 17.09158 2846 ft 178 kts 298°
2026-05-07 19:13 51.04455 17.07379 2809 ft 180 kts 298°
2026-05-07 19:13 51.05013 17.05579 2582 ft 179 kts 298°
2026-05-07 19:13 51.05727 17.03277 2273 ft 170 kts 298°
2026-05-07 19:14 51.06070 17.02172 2126 ft 165 kts 299°
2026-05-07 19:14 51.06558 17.00594 1950 ft 154 kts 299°
2026-05-07 19:14 51.07031 16.99068 1727 ft 155 kts 299°
2026-05-07 19:14 51.07491 16.97578 1514 ft 140 kts 300°
2026-05-07 19:15 51.07904 16.96241 1316 ft 134 kts 300°
2026-05-07 19:15 51.08317 16.94906 1138 ft 135 kts 299°
2026-05-07 19:15 51.08733 16.93546 950 ft 135 kts 298°
2026-05-07 19:15 51.09131 16.92198 750 ft 135 kts 299°
2026-05-07 19:16 51.09556 16.90857 565 ft 135 kts 300°
2026-05-07 19:16 51.09961 16.89548 403 ft 123 kts 299°
2026-05-07 19:16 51.10257 16.88630 396 ft 62 kts 296°
2026-05-07 19:16 51.10436 16.88044 401 ft 53 kts 295°
2026-05-07 19:17 51.10582 16.87566 402 ft 40 kts 295°
2026-05-07 19:17 51.10673 16.87272 404 ft 17 kts 311°
2026-05-07 19:17 51.10749 16.87270 402 ft 9 kts 27°
2026-05-07 19:17 51.10811 16.87319 401 ft 11 kts 27°
2026-05-07 19:18 51.10871 16.87367 400 ft 7 kts 25°
2026-05-07 19:18 51.10928 16.87412 400 ft 10 kts 36°
2026-05-07 19:18 51.10931 16.87543 398 ft 14 kts 112°
2026-05-07 19:18 51.10889 16.87684 399 ft 12 kts 116°
2026-05-07 19:19 51.10877 16.87744 398 ft 2 kts 44°
2026-05-07 19:19 51.10915 16.87765 397 ft 7 kts 26°
2026-05-07 19:19 51.10934 16.87779 397 ft 0 kts 25°